When you browse on this site, cookies collect data to enhance your experience and personalize the content and advertising you see.
Visit our Privacy Policy to learn more. By continuing to use the site, you agree to this use of cookies and data.
  • In Switzerland
  • List of Countries
  • For 7 days
  • Water Temperature
  • Satellite Maps
  • Weather Map
  • Weather Widgets
  • user-avatar
    Login

    Hourly Weather Kaprun

    Today, 25 June, Tuesday

    Time Temperature Precipitation Wind Pressure Humidity
    00:00 +9°C° 0 mm 2 mps 603 mmHg 85%
    01:00 +9°C° 0 mm 2 mps 603 mmHg 84%
    02:00 +9°C° 0 mm 2 mps 603 mmHg 84%
    03:00 +9°C° 0 mm 2 mps 602 mmHg 84%
    04:00 +9°C° 0 mm 2 mps 602 mmHg 84%
    05:00 +12°C° 0 mm 1 mps 603 mmHg 77%
    06:00 +14°C° 0 mm 1 mps 604 mmHg 70%
    07:00 +18°C° 0 mm 1 mps 606 mmHg 60%
    08:00 +20°C° 0 mm 1 mps 606 mmHg 52%
    09:00 +22°C° 0 mm 1 mps 607 mmHg 44%
    10:00 +23°C° 0 mm 1 mps 608 mmHg 36%
    11:00 +24°C° 0 mm 1 mps 608 mmHg 33%
    12:00 +25°C° 0 mm 1 mps 609 mmHg 31%
    13:00 +26°C° 0 mm 2 mps 609 mmHg 29%
    14:00 +25°C° 0 mm 2 mps 609 mmHg 31%
    15:00 +25°C° 0 mm 2 mps 609 mmHg 33%
    16:00 +25°C° 0 mm 2 mps 609 mmHg 36%
    17:00 +23°C° 0 mm 2 mps 608 mmHg 47%
    18:00 +21°C° 0 mm 1 mps 608 mmHg 59%
    19:00 +19°C° 0 mm 1 mps 607 mmHg 71%
    20:00 +18°C° 0 mm 1 mps 607 mmHg 72%
    21:00 +15°C° 0 mm 1 mps 606 mmHg 74%
    22:00 +13°C° 0 mm 1 mps 605 mmHg 76%
    23:00 +13°C° 0 mm 1 mps 605 mmHg 72%

    Tomorrow, 26 June, Wednesday

    Time Temperature Precipitation Wind Pressure Humidity
    00:00 +13°C° 0 mm 1 mps 606 mmHg 67%
    01:00 +12°C° 0 mm 1 mps 606 mmHg 63%
    02:00 +12°C° 0 mm 1 mps 605 mmHg 60%
    03:00 +12°C° 0 mm 1 mps 605 mmHg 58%
    04:00 +12°C° 0 mm 1 mps 605 mmHg 55%
    05:00 +15°C° 0 mm 1 mps 606 mmHg 53%
    06:00 +18°C° 0 mm 1 mps 608 mmHg 51%
    07:00 +21°C° 0 mm 1 mps 609 mmHg 49%
    08:00 +22°C° 0 mm 1 mps 609 mmHg 44%
    09:00 +24°C° 0 mm 1 mps 610 mmHg 38%
    10:00 +25°C° 0 mm 2 mps 611 mmHg 33%
    11:00 +26°C° 0 mm 2 mps 611 mmHg 31%
    12:00 +26°C° 0 mm 2 mps 611 mmHg 29%
    13:00 +27°C° 0 mm 2 mps 611 mmHg 27%
    14:00 +27°C° 0 mm 2 mps 611 mmHg 29%
    15:00 +26°C° 0 mm 2 mps 610 mmHg 30%
    16:00 +26°C° 0 mm 2 mps 610 mmHg 31%
    17:00 +24°C° 0 mm 2 mps 609 mmHg 43%
    18:00 +23°C° 0 mm 1 mps 609 mmHg 55%
    19:00 +21°C° 0 mm 1 mps 608 mmHg 66%
    20:00 +19°C° 0 mm 1 mps 607 mmHg 67%
    21:00 +16°C° 0 mm 1 mps 607 mmHg 68%
    22:00 +15°C° 0 mm 1 mps 606 mmHg 69%
    23:00 +14°C° 0 mm 1 mps 606 mmHg 67%

    Day after tomorrow, 27 June, Thursday

    Time Temperature Precipitation Wind Pressure Humidity
    00:00 +14°C° 0 mm 1 mps 606 mmHg 64%
    01:00 +14°C° 0 mm 1 mps 606 mmHg 62%
    02:00 +13°C° 0 mm 1 mps 605 mmHg 61%
    03:00 +13°C° 0 mm 1 mps 605 mmHg 59%
    04:00 +13°C° 0 mm 1 mps 605 mmHg 58%
    05:00 +15°C° 0 mm 1 mps 606 mmHg 56%
    06:00 +18°C° 0 mm 1 mps 607 mmHg 53%
    07:00 +21°C° 0 mm 1 mps 608 mmHg 51%
    08:00 +21°C° 0 mm 2 mps 608 mmHg 45%
    09:00 +23°C° 0 mm 2 mps 608 mmHg 40%
    10:00 +25°C° 0 mm 3 mps 609 mmHg 34%
    11:00 +25°C° 0 mm 3 mps 609 mmHg 37%
    12:00 +25°C° 0 mm 4 mps 608 mmHg 39%
    13:00 +25°C° 0 mm 4 mps 608 mmHg 41%
    14:00 +23°C° 0.3 mm 4 mps 608 mmHg 44%
    15:00 +23°C° 0.3 mm 4 mps 607 mmHg 47%
    16:00 +22°C° 0.3 mm 3 mps 607 mmHg 50%
    17:00 +20°C° 0.6 mm 3 mps 606 mmHg 62%
    18:00 +18°C° 0.6 mm 2 mps 605 mmHg 73%
    19:00 +17°C° 0.6 mm 2 mps 604 mmHg 85%
    20:00 +15°C° 0.1 mm 2 mps 604 mmHg 88%
    21:00 +14°C° 0.1 mm 2 mps 604 mmHg 91%
    22:00 +12°C° 0.1 mm 1 mps 603 mmHg 95%
    23:00 +12°C° 0 mm 2 mps 603 mmHg 95%

    28 June, Friday

    Time Temperature Precipitation Wind Pressure Humidity
    00:00 +12°C° 0 mm 2 mps 603 mmHg 96%
    01:00 +12°C° 0 mm 2 mps 603 mmHg 97%
    02:00 +12°C° 0 mm 1 mps 603 mmHg 97%
    03:00 +12°C° 0 mm 1 mps 603 mmHg 97%
    04:00 +11°C° 0 mm 1 mps 603 mmHg 97%
    05:00 +12°C° 0 mm 2 mps 603 mmHg 95%
    06:00 +13°C° 0 mm 2 mps 603 mmHg 93%
    07:00 +14°C° 0 mm 2 mps 603 mmHg 90%
    08:00 +15°C° 0 mm 2 mps 604 mmHg 79%
    09:00 +17°C° 0 mm 2 mps 604 mmHg 67%
    10:00 +18°C° 0 mm 3 mps 605 mmHg 55%
    11:00 +19°C° 0 mm 3 mps 605 mmHg 50%
    12:00 +19°C° 0 mm 3 mps 605 mmHg 45%
    13:00 +20°C° 0 mm 3 mps 605 mmHg 40%
    14:00 +20°C° 0 mm 3 mps 605 mmHg 41%
    15:00 +20°C° 0 mm 3 mps 605 mmHg 42%
    16:00 +20°C° 0 mm 3 mps 604 mmHg 44%
    17:00 +18°C° 0 mm 3 mps 604 mmHg 52%
    18:00 +16°C° 0 mm 2 mps 604 mmHg 61%
    19:00 +15°C° 0 mm 2 mps 603 mmHg 70%
    20:00 +13°C° 0 mm 2 mps 602 mmHg 76%
    21:00 +11°C° 0 mm 1 mps 602 mmHg 81%
    22:00 +9°C° 0 mm 1 mps 601 mmHg 87%
    23:00 +9°C° 0 mm 1 mps 601 mmHg 84%

    29 June, Saturday

    Time Temperature Precipitation Wind Pressure Humidity
    00:00 +8°C° 0 mm 1 mps 601 mmHg 82%
    01:00 +8°C° 0 mm 1 mps 601 mmHg 79%
    02:00 +8°C° 0 mm 1 mps 600 mmHg 77%
    03:00 +7°C° 0 mm 1 mps 600 mmHg 74%
    04:00 +7°C° 0 mm 1 mps 600 mmHg 71%
    05:00 +9°C° 0 mm 0 mps 601 mmHg 63%
    06:00 +11°C° 0 mm 0 mps 602 mmHg 55%
    07:00 +14°C° 0 mm 0 mps 603 mmHg 48%
    08:00 +16°C° 0 mm 0 mps 604 mmHg 43%
    09:00 +19°C° 0 mm 1 mps 605 mmHg 38%
    10:00 +21°C° 0 mm 1 mps 606 mmHg 33%
    11:00 +22°C° 0 mm 1 mps 606 mmHg 31%
    12:00 +23°C° 0 mm 1 mps 606 mmHg 29%
    13:00 +24°C° 0 mm 1 mps 606 mmHg 28%
    14:00 +24°C° 0 mm 1 mps 606 mmHg 29%
    15:00 +24°C° 0 mm 2 mps 606 mmHg 30%
    16:00 +24°C° 0 mm 2 mps 605 mmHg 31%
    17:00 +22°C° 0 mm 1 mps 605 mmHg 44%
    18:00 +20°C° 0 mm 1 mps 604 mmHg 58%
    19:00 +16°C° 0 mm 0 mps 604 mmHg 71%
    20:00 +15°C° 0 mm 1 mps 603 mmHg 73%
    21:00 +13°C° 0 mm 1 mps 602 mmHg 76%
    22:00 +12°C° 0 mm 1 mps 602 mmHg 79%
    23:00 +12°C° 0 mm 1 mps 602 mmHg 78%

    30 June, Sunday

    Time Temperature Precipitation Wind Pressure Humidity
    00:00 +12°C° 0 mm 1 mps 602 mmHg 77%
    01:00 +12°C° 0 mm 1 mps 602 mmHg 77%
    02:00 +11°C° 0 mm 1 mps 601 mmHg 74%
    03:00 +11°C° 0 mm 1 mps 601 mmHg 72%
    04:00 +10°C° 0 mm 1 mps 601 mmHg 69%
    05:00 +13°C° 0 mm 1 mps 602 mmHg 64%
    06:00 +15°C° 0 mm 1 mps 603 mmHg 58%
    07:00 +17°C° 0 mm 0 mps 604 mmHg 53%
    08:00 +20°C° 0 mm 1 mps 605 mmHg 48%
    09:00 +22°C° 0 mm 1 mps 605 mmHg 42%
    10:00 +23°C° 0 mm 1 mps 606 mmHg 37%
    11:00 +24°C° 0 mm 2 mps 606 mmHg 35%
    12:00 +25°C° 0 mm 2 mps 606 mmHg 33%
    13:00 +25°C° 0 mm 2 mps 606 mmHg 31%
    14:00 +25°C° 0 mm 2 mps 606 mmHg 32%
    15:00 +25°C° 0 mm 3 mps 606 mmHg 34%
    16:00 +25°C° 0 mm 3 mps 606 mmHg 35%
    17:00 +23°C° 0 mm 2 mps 605 mmHg 44%
    18:00 +21°C° 0 mm 1 mps 604 mmHg 52%
    19:00 +19°C° 0 mm 1 mps 604 mmHg 61%
    20:00 +18°C° 0 mm 1 mps 603 mmHg 60%
    21:00 +15°C° 0 mm 1 mps 603 mmHg 59%
    22:00 +13°C° 0 mm 1 mps 602 mmHg 58%
    23:00 +13°C° 0 mm 1 mps 602 mmHg 58%
    Show more